User: anonymous   Login
Location: Brno
(49.2000°N, 16.6330°E)
Time: 15:17:21
(UTC+02:00)
Language:

Cosmos 1459 Rocket - Orbit

View from above orbital plane
View from above orbital plane
View from above satellite
View from above satellite

Ground track
Ground track

The orbit data is extracted from the following two-line orbital elements,

1 14059U 83042B   15241.84538299 +.00000077 +00000-0 +60846-4 0  9999
2 14059 082.9736 189.8006 0041623 314.6547 074.0708 13.78520237624921
Epoch (UTC): 29 August 2015 20:17:21
Eccentricity: 0.0041623
inclination: 82.9736°
perigee height: 938 km
apogee height: 1000 km
right ascension of ascending node: 189.8006°
argument of perigee: 314.6547°
revolutions per day: 13.78520237
mean anomaly at epoch: 74.0708°
orbit number at epoch: 62492

The dashed part of the orbit path shows where the satellite is in the earth's shadow,  

DLR